Regional Weather Roundup
Issued by NWS

Home | Current Version | Previous Version | Graphics & Text | Print | Product List | Glossary On
Versions: 1 2 3 4 5 6 7 8 9 10 11 12 13 14 15 16 17 18 19 20 21 22 23 24 25 26 27 28 29 30 31 32 33 34 35 36 37 38 39 40 41 42 43 44 45 46 47 48 49 50
000
ASUS43 KOAX 270202
RWRNE

WEATHER ROUNDUP FOR NEBRASKA
NATIONAL WEATHER SERVICE OMAHA NE
900 PM CDT FRI AUG 26 2016

NOTES: SATELLITE DATA IS BEING USED TO AUGMENT CLOUD COVER ABOVE
       12000 FEET.
       "FAIR" INDICATES FEW OR NO CLOUDS BELOW 12,000 FEET WITH NO
       SIGNIFICANT WEATHER AND/OR OBSTRUCTIONS TO VISIBILITY.

  * THESE STATIONS DO NOT REPORT WEATHER SUCH AS RAIN...SNOW OR FOG.

NEZ001>004-019>022-054>056-270300-
NEBRASKA PANHANDLE

CITY           SKY/WX    TMP DP  RH WIND       PRES   REMARKS
SCOTTSBLUFF    CLOUDY    60  55  83 SE6       30.03S
ALLIANCE       PTCLDY    58  54  86 SE7       30.03F
CHADRON        CLEAR     64  52  64 S8        29.99S
SIDNEY         CLOUDY    57  53  86 SE8       30.08R
$$

NEZ057>060-069>072-079>082-270300-
SOUTHWEST NEBRASKA

CITY           SKY/WX    TMP DP  RH WIND       PRES   REMARKS
NORTH PLATTE   CLOUDY    63  59  87 CALM      30.04R
IMPERIAL       CLOUDY    59  57  93 CALM      30.06S
LEXINGTON      CLOUDY    66  62  87 S8        30.03F
MCCOOK         LGT RAIN  60  57  89 E20       30.02F
OGALLALA       CLOUDY    59  56  89 E5        30.04F
$$

NEZ005>010-023>029-035>040-094-270300-
NORTH CENTRAL NEBRASKA

CITY           SKY/WX    TMP DP  RH WIND       PRES   REMARKS
VALENTINE      CLOUDY    60  57  89 E3        30.04S
AINSWORTH      CLOUDY    61  55  78 SE6       30.04S
BROKEN BOW     CLOUDY    62  59  90 SE8       30.03S
O`NEILL        MOCLDY    66  57  72 E6        30.06R
ORD            CLOUDY    65  57  75 SE10      30.02S
THEDFORD       CLOUDY    61  59  94 CALM      30.07R
$$

NEZ041-046>049-061>064-073>077-083>087-270300-
SOUTH CENTRAL NEBRASKA

CITY           SKY/WX    TMP DP  RH WIND       PRES   REMARKS
GRAND ISLAND   CLOUDY    65  63  93 SE7       30.07R
AURORA         CLOUDY    64  64 100 E5        30.06R FOG
HASTINGS       CLOUDY    65  63  93 E6        30.08R
HEBRON         CLOUDY    68  65  92 N3        30.05R
HOLDREGE       CLOUDY    65  60  85 SE8       30.05F
KEARNEY *      PTCLDY    66  61  82 SE10      30.05S
YORK           CLOUDY    64  64 100 E6        30.07R FOG
$$

NEZ011>018-030>034-042>045-270300-
NORTHEAST NEBRASKA

CITY           SKY/WX    TMP DP  RH WIND       PRES   REMARKS
NORFOLK        CLOUDY    63  60  90 SE10      30.06R
ALBION         DRIZZLE   64  61  91 SE7       30.06R
BLAIR          CLOUDY    67  64  89 E9        30.07R
FREMONT        CLOUDY    65  62  88 E6        30.08R
TEKAMAH        CLOUDY    65  61  87 N3        30.07R
WAYNE          CLOUDY    65  61  85 SE9       30.07S
$$

NEZ050>053-065>068-078-088>093-270300-
SOUTHEAST NEBRASKA

CITY           SKY/WX    TMP DP  RH WIND       PRES   REMARKS
LINCOLN        LGT RAIN  69  65  86 E8        30.07R
OMAHA EPPLEY   CLOUDY    68  62  81 NE9       30.06R
BEATRICE       CLOUDY    68  66  94 E8        30.03S
FALLS CITY     PTCLDY    70  69  97 CALM      30.02R
NEBRASKA CITY  CLOUDY    67  67 100 N5        30.04S
PLATTSMOUTH    CLOUDY    68  66  93 NE6       30.05S
$$

NEZ044-045-051>053-067-270300-
OMAHA AREA

CITY           SKY/WX    TMP DP  RH WIND       PRES   REMARKS
OMAHA EPPLEY   CLOUDY    68  62  81 NE9       30.06R
BLAIR          CLOUDY    67  64  89 E9        30.07R
FREMONT        CLOUDY    65  62  88 E6        30.08R
MILLARD        CLOUDY    69  64  83 E5        30.06R
OFFUTT AFB     MOCLDY    68  65  92 NE5       30.05R
PLATTSMOUTH    CLOUDY    68  66  93 NE6       30.05S
WAHOO          CLOUDY    66  64  92 CALM      30.07R
$$




USA.gov is the U.S. government's official web portal to all federal, state and local government web resources and services.